Weather reports worldwide

Advertisment
Chillingham Barns, United Kingdom (99196): temperature & dewpoint: 09.11.2018 05:00:00 - 15.11.2018 05:00:00 (GMT)Chillingham Barns, United Kingdom (99196): precipitation: 09.11.2018 05:00:00 - 15.11.2018 05:00:00 (GMT)
Date & Time tt [°C] td [°C] rr [mm]
15.11.2018 05:00:00 - - -
15.11.2018 04:00:00 - - -
15.11.2018 03:00:00 9,2 6,0 0,0
15.11.2018 02:00:00 9,3 6,3 0,0
15.11.2018 01:00:00 - - -
15.11.2018 00:00:00 - - -
14.11.2018 23:00:00 9,9 6,9 0,0
14.11.2018 22:00:00 10,6 7,3 0,0
14.11.2018 21:00:00 11,4 7,9 0,0
14.11.2018 20:00:00 12,1 8,6 0,0
14.11.2018 19:00:00 12,7 9,1 0,0
14.11.2018 18:00:00 12,6 9,3 0,0
14.11.2018 17:00:00 13,1 10,0 0,0
14.11.2018 16:00:00 13,3 10,3 0,0
14.11.2018 15:00:00 13,6 10,1 0,0
14.11.2018 14:00:00 13,6 10,5 0,0
14.11.2018 13:00:00 13,1 10,4 0,0
14.11.2018 12:00:00 12,9 10,4 0,0
14.11.2018 11:00:00 12,1 10,0 0,0
14.11.2018 10:00:00 11,9 9,4 0,0
14.11.2018 09:00:00 11,2 8,7 0,0
14.11.2018 08:00:00 11,0 8,3 0,0
14.11.2018 07:00:00 10,4 8,1 0,0
14.11.2018 06:00:00 10,0 8,0 0,2
14.11.2018 05:00:00 10,2 7,8 0,6
14.11.2018 04:00:00 10,5 7,1 0,0
14.11.2018 03:00:00 10,7 6,8 0,0
14.11.2018 02:00:00 10,7 6,9 0,0
14.11.2018 01:00:00 10,4 6,9 0,0
14.11.2018 00:00:00 10,2 7,0 0,0
13.11.2018 23:00:00 10,1 7,2 0,0
13.11.2018 22:00:00 8,9 6,7 0,0
13.11.2018 21:00:00 9,3 6,4 0,0
13.11.2018 20:00:00 9,6 5,9 0,0
13.11.2018 19:00:00 9,5 6,2 0,0
13.11.2018 18:00:00 9,6 5,3 0,0
13.11.2018 17:00:00 9,4 5,5 0,0
13.11.2018 16:00:00 8,8 5,1 0,0
13.11.2018 15:00:00 10,0 4,9 0,0
13.11.2018 14:00:00 10,7 5,5 0,0
13.11.2018 13:00:00 10,6 5,9 0,0
13.11.2018 12:00:00 10,9 6,2 0,0
13.11.2018 11:00:00 10,1 6,4 0,0
13.11.2018 10:00:00 10,2 6,9 0,0
13.11.2018 09:00:00 9,6 6,8 0,0
13.11.2018 08:00:00 8,9 6,2 0,0
13.11.2018 07:00:00 9,3 6,7 0,0
13.11.2018 06:00:00 8,8 6,4 0,0
13.11.2018 05:00:00 7,6 5,8 0,0
13.11.2018 04:00:00 7,4 6,0 0,0
13.11.2018 03:00:00 7,8 5,8 0,0
13.11.2018 02:00:00 8,0 5,9 0,0
13.11.2018 01:00:00 7,8 5,5 0,0
13.11.2018 00:00:00 7,8 5,3 0,0
12.11.2018 23:00:00 7,3 5,4 0,0
12.11.2018 22:00:00 7,7 5,8 0,0
12.11.2018 21:00:00 7,7 6,0 0,2
12.11.2018 20:00:00 8,2 6,3 0,0
12.11.2018 19:00:00 8,1 5,9 0,2
12.11.2018 18:00:00 8,0 5,3 0,0
12.11.2018 17:00:00 8,3 5,6 0,0
12.11.2018 16:00:00 8,3 6,3 0,2
12.11.2018 15:00:00 9,6 7,5 0,4
12.11.2018 14:00:00 10,3 7,3 0,2
12.11.2018 13:00:00 10,4 7,4 0,0
12.11.2018 12:00:00 10,3 7,0 0,0
12.11.2018 11:00:00 9,6 6,5 0,0
12.11.2018 10:00:00 8,7 6,4 0,0
12.11.2018 09:00:00 7,7 5,5 0,0
12.11.2018 08:00:00 7,7 5,4 0,0
12.11.2018 07:00:00 7,2 4,9 0,0
12.11.2018 06:00:00 7,7 5,7 0,0
12.11.2018 05:00:00 7,5 5,2 0,0
12.11.2018 04:00:00 7,6 5,4 0,0
12.11.2018 03:00:00 7,5 5,3 0,0
12.11.2018 02:00:00 7,9 5,5 0,0
12.11.2018 01:00:00 7,7 5,3 0,0
12.11.2018 00:00:00 7,3 5,4 0,0
11.11.2018 23:00:00 6,9 5,6 0,0
11.11.2018 22:00:00 6,3 4,8 0,0
11.11.2018 21:00:00 6,0 4,2 0,0
11.11.2018 20:00:00 6,3 4,0 0,0
11.11.2018 19:00:00 6,7 4,5 0,0
11.11.2018 18:00:00 7,0 4,7 0,0
11.11.2018 17:00:00 7,6 5,2 0,0
11.11.2018 16:00:00 7,9 6,9 0,2
11.11.2018 15:00:00 7,9 7,0 0,4
11.11.2018 14:00:00 8,2 6,7 0,0
11.11.2018 13:00:00 8,2 6,4 0,0
11.11.2018 12:00:00 7,5 6,5 0,0
11.11.2018 11:00:00 6,6 5,8 0,0
11.11.2018 10:00:00 5,9 5,5 0,0
11.11.2018 09:00:00 5,5 5,1 0,0
11.11.2018 08:00:00 5,5 4,5 0,0
11.11.2018 07:00:00 4,1 3,5 0,0
11.11.2018 06:00:00 5,3 3,9 0,0
11.11.2018 05:00:00 5,9 4,5 0,0
11.11.2018 04:00:00 6,9 5,8 0,0
11.11.2018 03:00:00 5,8 5,3 0,0
11.11.2018 02:00:00 6,0 5,4 0,0
11.11.2018 01:00:00 6,5 5,6 0,0
11.11.2018 00:00:00 6,7 5,9 0,0
10.11.2018 23:00:00 7,8 6,5 0,0
10.11.2018 22:00:00 8,6 7,2 0,0
10.11.2018 21:00:00 8,7 7,1 0,0
10.11.2018 20:00:00 9,1 7,6 0,0
10.11.2018 19:00:00 9,3 7,7 0,0
10.11.2018 18:00:00 9,7 7,6 0,0
10.11.2018 17:00:00 9,3 7,3 0,2
10.11.2018 16:00:00 9,5 6,3 0,0
10.11.2018 15:00:00 9,7 6,1 0,0
10.11.2018 14:00:00 10,7 6,3 0,0
10.11.2018 13:00:00 10,2 6,7 0,0
10.11.2018 12:00:00 10,6 7,0 0,0
10.11.2018 11:00:00 9,6 6,7 0,0
10.11.2018 10:00:00 9,2 6,2 0,0
10.11.2018 09:00:00 8,8 6,0 0,0
10.11.2018 08:00:00 8,1 6,0 0,0
10.11.2018 07:00:00 6,9 6,0 0,0
10.11.2018 06:00:00 7,1 5,8 0,0
10.11.2018 05:00:00 7,9 6,6 0,0
10.11.2018 04:00:00 9,0 7,5 0,0
10.11.2018 03:00:00 9,0 7,7 0,0
10.11.2018 02:00:00 9,4 7,9 0,0
10.11.2018 01:00:00 9,4 8,0 0,2
10.11.2018 00:00:00 9,4 7,8 0,6
09.11.2018 23:00:00 8,9 7,8 0,6
09.11.2018 22:00:00 9,0 7,8 1,8
09.11.2018 21:00:00 9,1 7,6 0,8
09.11.2018 20:00:00 10,1 7,9 0,0
09.11.2018 19:00:00 10,1 8,1 0,0
09.11.2018 18:00:00 9,8 8,0 0,0
09.11.2018 17:00:00 9,6 7,9 0,0
09.11.2018 16:00:00 9,7 7,6 0,0
09.11.2018 15:00:00 10,0 7,9 0,0
09.11.2018 14:00:00 9,6 7,1 0,0
09.11.2018 13:00:00 9,3 7,1 0,0
09.11.2018 12:00:00 9,1 6,9 0,0
09.11.2018 11:00:00 8,3 6,4 0,0
09.11.2018 10:00:00 7,9 6,1 0,0
09.11.2018 09:00:00 7,5 5,7 0,0
09.11.2018 08:00:00 7,3 5,3 0,0
09.11.2018 07:00:00 7,3 5,3 0,0
09.11.2018 06:00:00 7,4 5,3 0,0
09.11.2018 05:00:00 7,0 5,1 0,0

tt = temperature
td = dewpoint
rr = precipitation

Next stations